TimeCET,TemperatureF,Dew PointF,Humidity,Sea Level PressureIn,VisibilityMPH,Wind Direction,Wind SpeedMPH,Gust SpeedMPH,PrecipitationIn,Events,Conditions,WindDirDegrees,DateUTC
1:00 AM,60,59,94,29.80,,West,2.3,,,,,270,2012-11-27 00:00:00
5:00 AM,60.8,55.4,82,29.71,5.0,WSW,4.6,-,N/A,,Partly Cloudy,250,2012-11-27 04:00:00
5:30 AM,57.2,51.8,82,29.74,6.2,WNW,3.5,-,N/A,,Partly Cloudy,290,2012-11-27 04:30:00
6:00 AM,59.0,44.6,59,29.71,6.2,NW,3.5,-,N/A,,Partly Cloudy,310,2012-11-27 05:00:00
6:30 AM,57.2,44.6,63,29.71,6.2,Variable,2.3,-,N/A,,Partly Cloudy,0,2012-11-27 05:30:00
7:00 AM,57,42,46,29.74,12,WNW,6.9,,,,Scattered Clouds,300,2012-11-27 06:00:00
7:00 AM,59.0,44.6,59,29.74,6.2,WNW,5.8,17.3,N/A,,Partly Cloudy,300,2012-11-27 06:00:00
7:30 AM,59.0,41.0,51,29.74,6.2,WNW,6.9,-,N/A,,Partly Cloudy,300,2012-11-27 06:30:00
8:00 AM,59.0,39.2,48,29.74,6.2,NW,11.5,-,N/A,,Scattered Clouds,320,2012-11-27 07:00:00
8:30 AM,59.0,37.4,45,29.74,6.2,NW,10.4,21.9,N/A,,Scattered Clouds,320,2012-11-27 07:30:00
9:00 AM,59.0,35.6,42,29.74,6.2,NW,13.8,-,N/A,,Scattered Clouds,320,2012-11-27 08:00:00
9:30 AM,59.0,33.8,39,29.74,6.2,NW,11.5,25.3,N/A,,Partly Cloudy,320,2012-11-27 08:30:00
10:00 AM,60.8,33.8,36,29.74,6.2,NNW,13.8,-,N/A,,Partly Cloudy,330,2012-11-27 09:00:00
10:30 AM,62.6,30.2,30,29.71,6.2,NNW,18.4,-,N/A,,Partly Cloudy,330,2012-11-27 09:30:00
11:00 AM,62.6,28.4,27,29.74,6.2,North,21.9,-,N/A,,Partly Cloudy,350,2012-11-27 10:00:00
11:30 AM,64.4,28.4,26,29.74,6.2,NNW,18.4,-,N/A,,Partly Cloudy,330,2012-11-27 10:30:00
12:00 PM,64.4,28.4,26,29.74,6.2,NW,16.1,-,N/A,,Partly Cloudy,320,2012-11-27 11:00:00
12:30 PM,64.4,35.6,34,29.74,6.2,West,12.7,-,N/A,,Partly Cloudy,270,2012-11-27 11:30:00
1:00 PM,62,39,31,29.74,25,SSW,17.3,,,,Scattered Clouds,210,2012-11-27 12:00:00
1:00 PM,64.4,39.2,40,29.74,6.2,SSW,17.3,-,N/A,,Partly Cloudy,210,2012-11-27 12:00:00
1:30 PM,62.6,42.8,48,29.71,6.2,South,11.5,-,N/A,,Partly Cloudy,190,2012-11-27 12:30:00
2:00 PM,62.6,42.8,48,29.71,6.2,South,9.2,-,N/A,,Partly Cloudy,190,2012-11-27 13:00:00
2:30 PM,64.4,41.0,42,29.71,6.2,South,9.2,-,N/A,,Partly Cloudy,190,2012-11-27 13:30:00
3:00 PM,62.6,41.0,45,29.71,6.2,SSW,9.2,-,N/A,,Partly Cloudy,200,2012-11-27 14:00:00
3:30 PM,62.6,42.8,48,29.68,6.2,SW,8.1,-,N/A,,Partly Cloudy,220,2012-11-27 14:30:00
4:00 PM,62.6,42.8,48,29.68,6.2,WSW,9.2,-,N/A,,Scattered Clouds,240,2012-11-27 15:00:00
4:30 PM,60.8,42.8,52,29.68,6.2,WSW,12.7,-,N/A,,Scattered Clouds,240,2012-11-27 15:30:00
5:00 PM,60.8,42.8,52,29.68,6.2,SW,11.5,-,N/A,,Scattered Clouds,230,2012-11-27 16:00:00
5:30 PM,60.8,42.8,52,29.68,6.2,WSW,11.5,-,N/A,,Scattered Clouds,250,2012-11-27 16:30:00
6:00 PM,60.8,42.8,52,29.68,6.2,West,5.8,-,N/A,,Scattered Clouds,260,2012-11-27 17:00:00
6:30 PM,59.0,37.4,45,29.71,6.2,West,5.8,-,N/A,,Scattered Clouds,280,2012-11-27 17:30:00
7:00 PM,57,32,27,29.72,16,NW,9.2,,,,Scattered Clouds,320,2012-11-27 18:00:00
7:00 PM,59.0,33.8,39,29.71,6.2,NW,9.2,-,N/A,,Scattered Clouds,320,2012-11-27 18:00:00
7:30 PM,59.0,33.8,39,29.71,6.2,NW,8.1,-,N/A,,Scattered Clouds,310,2012-11-27 18:30:00
8:00 PM,57.2,33.8,41,29.71,6.2,NW,12.7,24.2,N/A,,Scattered Clouds,310,2012-11-27 19:00:00
8:30 PM,57.2,33.8,41,29.71,6.2,NW,11.5,-,N/A,,Scattered Clouds,320,2012-11-27 19:30:00
9:00 PM,57.2,33.8,41,29.71,6.2,NW,17.3,28.8,N/A,,Scattered Clouds,320,2012-11-27 20:00:00
9:30 PM,57.2,32.0,38,29.71,6.2,NW,17.3,-,N/A,,Scattered Clouds,320,2012-11-27 20:30:00
10:00 PM,57.2,30.2,36,29.71,6.2,NW,18.4,29.9,N/A,,Scattered Clouds,310,2012-11-27 21:00:00